Middletown, OH

10:06 AM EST on December 10, 2016 (GMT -0500)
Hook Field Municipal

Weather History for KMWO - February, 2013

Change the Weather History Date:

Wednesday, February 13, 2013

  Actual Average (KFFO) Record (KFFO)
Temperature  
Mean Temperature 32 °F -  
Max Temperature 37 °F 39 °F 52 °F (2011)
Min Temperature 27 °F 23 °F 4 °F (2016)
Degree Days  
Heating Degree Days 33    
Moisture  
Dew Point 31 °F    
Average Humidity 94    
Maximum Humidity 100    
Minimum Humidity 76    
Precipitation  
Precipitation 0.00 in - - ()
Sea Level Pressure  
Sea Level Pressure 29.86 in    
Wind  
Wind Speed 5 mph (NNW)    
Max Wind Speed 9 mph    
Max Gust Speed -    
Visibility 7 miles    
Events Snow    
Averages and records for this station are not official NWS values.
T = Trace of Precipitation, MM = Missing Value Source: NWS Daily Summary

Daily Weather History Graph

Daily Weather History Graph

Search for Another Location

Airport or City:

Trip Planner

Search our weather history database for the weather conditions in past years. The results will help you decide how hot, cold, wet, or windy it might be!

Date:

Astronomy

Feb. 13, 2013 Rise Set
Actual Time 7:31 AM EST 6:12 PM EST
Civil Twilight 7:04 AM EST 6:39 PM EST
Nautical Twilight 6:32 AM EST 7:11 PM EST
Astronomical Twilight 6:01 AM EST 7:42 PM EST
Moon 9:01 AM EST (2/13) 10:12 PM EST (2/13)
Length of Visible Light 11h 35m
Length of Day
10h 40m
Waxing Crescent, 13% of the Moon is Illuminated
Feb 13
Waxing Crescent
Feb 17
First Quarter
Feb 25
Full
Mar 4
Last Quarter
Mar 11
New

Hourly Weather History & Observations

Time (EST) Temp. Windchill Dew Point Humidity Pressure Visibility Wind Dir Wind Speed Gust Speed Precip Events Conditions
12:15 AM 32.5 °F 29.3 °F 31.1 °F 94% 29.93 in 10.0 mi North 3.5 mph - N/A   Clear
12:35 AM 32.5 °F 29.3 °F 30.6 °F 92% 29.92 in 10.0 mi NNE 3.5 mph - N/A   Clear
12:55 AM 32.5 °F 29.3 °F 31.1 °F 94% 29.92 in 10.0 mi NNE 3.5 mph - N/A   Clear
1:15 AM 32.5 °F 26.2 °F 31.1 °F 94% 29.92 in 10.0 mi NNE 6.9 mph - N/A   Clear
1:35 AM 32.5 °F 25.5 °F 31.5 °F 96% 29.91 in 10.0 mi NNE 8.1 mph - N/A   Clear
1:55 AM 32.5 °F 25.5 °F 31.6 °F 96% 29.91 in 7.0 mi North 8.1 mph - N/A   Clear
2:15 AM 32.5 °F 26.2 °F 31.8 °F 97% 29.91 in 7.0 mi North 6.9 mph - N/A   Clear
2:35 AM 32.5 °F 26.2 °F 32.0 °F 98% 29.91 in 7.0 mi NNE 6.9 mph - N/A   Clear
2:55 AM 32.5 °F 26.2 °F 32.0 °F 98% 29.91 in 7.0 mi NNE 6.9 mph - N/A   Clear
3:15 AM 32.5 °F 27.1 °F 31.8 °F 97% 29.91 in 7.0 mi NNE 5.8 mph - N/A   Scattered Clouds
3:35 AM 32.5 °F 27.1 °F 31.8 °F 97% 29.90 in 7.0 mi NNE 5.8 mph - N/A   Scattered Clouds
3:55 AM 30.2 °F 26.7 °F 29.3 °F 96% 29.90 in 7.0 mi North 3.5 mph - N/A   Mostly Cloudy
4:15 AM 30.2 °F 24.3 °F 29.7 °F 98% 29.89 in 7.0 mi North 5.8 mph - N/A   Overcast
4:35 AM 30.2 °F 25.4 °F 29.7 °F 98% 29.89 in 7.0 mi NNE 4.6 mph - N/A   Overcast
4:55 AM 29.3 °F 21.5 °F 28.9 °F 99% 29.87 in 7.0 mi NNE 8.1 mph - N/A   Scattered Clouds
5:15 AM 29.1 °F 22.1 °F 28.9 °F 99% 29.87 in 5.0 mi NNE 6.9 mph - N/A   Scattered Clouds
5:35 AM 30.2 °F 23.4 °F 30.2 °F 100% 29.86 in 5.0 mi NE 6.9 mph - N/A   Overcast
5:55 AM 30.2 °F 23.4 °F 30.0 °F 99% 29.85 in 5.0 mi NE 6.9 mph - N/A   Overcast
6:15 AM 30.2 °F 23.4 °F 30.0 °F 99% 29.84 in 5.0 mi NE 6.9 mph - N/A   Overcast
6:35 AM 30.2 °F 25.4 °F 29.8 °F 99% 29.83 in 5.0 mi NE 4.6 mph - N/A   Overcast
6:55 AM 30.2 °F 23.4 °F 29.7 °F 98% 29.81 in 5.0 mi NE 6.9 mph - N/A   Overcast
7:15 AM 30.2 °F 24.3 °F 29.3 °F 96% 29.81 in 5.0 mi NNE 5.8 mph - N/A   Overcast
7:35 AM 30.6 °F 22.4 °F 29.5 °F 96% 29.81 in 7.0 mi NNE 9.2 mph - N/A   Overcast
7:55 AM 30.9 °F 24.3 °F 29.7 °F 95% 29.80 in 7.0 mi NNE 6.9 mph - N/A   Overcast
8:15 AM 32.5 °F 26.2 °F 31.6 °F 96% 29.82 in 5.0 mi NE 6.9 mph - N/A   Overcast
8:35 AM 32.5 °F 28.1 °F 31.5 °F 96% 29.83 in 5.0 mi NNE 4.6 mph - N/A   Overcast
8:55 AM 32.5 °F 27.1 °F 31.1 °F 94% 29.84 in 5.0 mi NNE 5.8 mph - N/A   Overcast
9:15 AM 32.5 °F - 31.1 °F 94% 29.86 in 5.0 mi Calm Calm - N/A   Overcast
9:35 AM 32.5 °F 27.1 °F 30.7 °F 93% 29.86 in 7.0 mi North 5.8 mph - N/A   Overcast
9:55 AM 32.5 °F 28.1 °F 30.7 °F 93% 29.86 in 7.0 mi North 4.6 mph - N/A   Overcast
10:15 AM 32.5 °F 29.3 °F 30.7 °F 93% 29.86 in 7.0 mi North 3.5 mph - N/A   Overcast
10:35 AM 32.5 °F - 30.6 °F 92% 29.87 in 7.0 mi Calm Calm - N/A   Overcast
10:55 AM 32.5 °F - 30.6 °F 92% 29.86 in 7.0 mi Calm Calm - N/A   Overcast
11:15 AM 32.5 °F 29.3 °F 30.6 °F 92% 29.86 in 7.0 mi NW 3.5 mph - N/A   Overcast
11:35 AM 30.2 °F - 29.5 °F 97% 29.85 in 0.5 mi Calm Calm - N/A Snow Snow
11:55 AM 30.7 °F - 30.6 °F 99% 29.83 in 0.8 mi Calm Calm - N/A Snow Light Snow
12:15 PM 30.2 °F - 30.2 °F 100% 29.83 in 1.2 mi Calm Calm - N/A Snow Light Snow
12:35 PM 32.4 °F - 32.4 °F 100% 29.82 in 2.5 mi Calm Calm - N/A   Overcast
12:55 PM 32.5 °F - 32.2 °F 99% 29.82 in 5.0 mi Calm Calm - N/A   Overcast
1:15 PM 32.5 °F 29.3 °F 31.5 °F 96% 29.80 in 7.0 mi NW 3.5 mph - N/A   Overcast
1:35 PM 32.5 °F - 30.7 °F 93% 29.80 in 10.0 mi Calm Calm - N/A   Overcast
1:55 PM 32.5 °F 28.1 °F 30.6 °F 92% 29.80 in 10.0 mi North 4.6 mph - N/A   Overcast
2:15 PM 32.5 °F 29.3 °F 30.2 °F 91% 29.80 in 10.0 mi NW 3.5 mph - N/A   Overcast
2:35 PM 34.2 °F - 31.8 °F 91% 29.80 in 10.0 mi Calm Calm - N/A   Overcast
2:55 PM 35.1 °F 30.1 °F 32.0 °F 89% 29.80 in 10.0 mi WNW 5.8 mph - N/A   Overcast
3:15 PM 35.1 °F 31.0 °F 31.5 °F 87% 29.80 in 10.0 mi WNW 4.6 mph - N/A   Overcast
3:35 PM 35.1 °F - 30.9 °F 85% 29.80 in 10.0 mi Calm Calm - N/A   Overcast
3:55 PM 35.1 °F 30.1 °F 30.0 °F 82% 29.81 in 10.0 mi West 5.8 mph - N/A   Mostly Cloudy
4:15 PM 37.4 °F - 30.9 °F 77% 29.81 in 10.0 mi Calm Calm - N/A   Scattered Clouds
4:35 PM 37.6 °F - 31.5 °F 79% 29.81 in 10.0 mi Calm Calm - N/A   Clear
4:55 PM 37.6 °F 33.1 °F 30.7 °F 76% 29.81 in 10.0 mi WSW 5.8 mph - N/A   Clear
5:15 PM 37.6 °F 32.3 °F 30.9 °F 77% 29.82 in 10.0 mi SW 6.9 mph - N/A   Clear
5:35 PM 37.6 °F 33.1 °F 31.3 °F 78% 29.82 in 10.0 mi SW 5.8 mph - N/A   Clear
5:55 PM 35.1 °F 29.3 °F 30.2 °F 82% 29.83 in 10.0 mi SW 6.9 mph - N/A   Clear
6:15 PM 32.5 °F 26.2 °F 29.7 °F 89% 29.84 in 10.0 mi SSW 6.9 mph - N/A   Clear
6:35 PM 32.5 °F - 30.4 °F 92% 29.84 in 10.0 mi Calm Calm - N/A   Clear
6:55 PM 32.5 °F 28.1 °F 30.9 °F 94% 29.85 in 10.0 mi SSW 4.6 mph - N/A   Clear
7:15 PM 32.5 °F 27.1 °F 31.6 °F 96% 29.87 in 7.0 mi SW 5.8 mph - N/A   Clear
7:35 PM 32.5 °F 26.2 °F 32.0 °F 98% 29.87 in 7.0 mi SSW 6.9 mph - N/A   Clear
7:55 PM 32.2 °F 28.9 °F 31.8 °F 99% 29.87 in 7.0 mi South 3.5 mph - N/A   Clear
8:15 PM 32.5 °F 29.3 °F 32.2 °F 99% 29.88 in 5.0 mi South 3.5 mph - N/A   Clear
8:35 PM 30.2 °F 24.3 °F 30.0 °F 99% 29.88 in 5.0 mi South 5.8 mph - N/A   Clear
8:55 PM 30.4 °F 26.9 °F 30.2 °F 99% 29.89 in 5.0 mi SW 3.5 mph - N/A   Clear
9:15 PM 30.2 °F 24.3 °F 30.2 °F 100% 29.89 in 5.0 mi SSW 5.8 mph - N/A   Clear
9:35 PM 30.2 °F 25.4 °F 30.2 °F 100% 29.90 in 5.0 mi SW 4.6 mph - N/A   Clear
9:55 PM 30.6 °F - 30.6 °F 100% 29.90 in 5.0 mi Calm Calm - N/A   Clear
10:15 PM 30.2 °F 26.7 °F 30.2 °F 100% 29.90 in 7.0 mi SW 3.5 mph - N/A   Clear
10:35 PM 30.2 °F 26.7 °F 30.2 °F 100% 29.90 in 5.0 mi WSW 3.5 mph - N/A   Scattered Clouds
10:55 PM 30.2 °F 26.7 °F 30.2 °F 100% 29.90 in 5.0 mi SW 3.5 mph - N/A   Scattered Clouds
11:15 PM 28.9 °F 25.2 °F 28.9 °F 100% 29.90 in 5.0 mi WSW 3.5 mph - N/A   Clear
11:35 PM 27.9 °F 22.6 °F 27.9 °F 100% 29.90 in 4.0 mi SW 4.6 mph - N/A   Clear
11:55 PM 27.9 °F 24.0 °F 27.9 °F 100% 29.90 in 4.0 mi WSW 3.5 mph - N/A   Scattered Clouds